Temperature
32 33 33 34 34 34 33 33 33 33 33 32 32 32 32 30 30 29 28 27 27 26 25 24 23 22 21 21 21 20 20 20 20 19 19 19 19 18 18 18 18 18 17 17
32 32 33 34 33 33 33 33 33 33 32 32 32 32 33 31 30 30 29 28 27 27 25 24 23 22 22 22 21 21 20 20 20 19 19 19 19 18 18 18 18 18 18 18
32 33 33 32 32 32 33 33 33 33 32 32 32 32 32 32 30 29 29 28 28 27 26 24 23 23 22 22 22 21 21 20 20 20 19 19 19 19 18 18 18 18 18 18
32 32 32 32 32 33 32 33 33 32 32 32 32 32 33 32 31 31 30 29 28 27 27 25 24 23 23 22 22 21 21 21 20 20 19 19 19 19 19 19 19 18 18 18
31 32 31 32 32 33 33 33 33 33 32 32 32 32 33 32 32 32 31 30 29 28 27 26 25 24 23 23 22 22 21 21 21 20 20 20 19 19 19 19 19 18 18 18
32 32 32 32 32 32 32 32 32 32 33 31 32 32 32 33 32 32 32 30 29 29 27 26 25 24 23 23 22 22 22 21 21 21 20 20 19 19 19 19 18 18 18 18
30 31 32 32 32 31 32 31 31 30 30 31 32 31 32 33 33 32 32 31 30 29 28 26 25 24 23 23 22 22 22 22 21 21 20 20 20 20 19 19 19 18 18 18
30 30 31 32 32 32 32 32 31 30 30 32 31 31 33 33 31 31 31 30 30 29 28 27 26 24 23 23 22 22 22 22 22 21 21 20 20 19 19 19 19 18 18 18
30 30 31 31 32 32 31 32 33 32 31 31 32 32 32 32 31 31 31 30 29 29 28 27 26 25 24 23 23 22 22 22 22 21 21 21 20 20 19 19 19 19 18 18
30 29 31 31 31 30 32 32 32 31 30 30 31 31 32 31 31 31 31 30 29 28 28 27 26 25 24 23 23 22 22 22 22 22 21 21 21 20 20 20 19 19 19 19
30 29 30 30 30 31 30 30 31 31 31 30 30 31 32 31 30 30 30 29 28 28 27 26 25 25 24 23 23 22 22 22 21 21 21 21 21 20 20 20 19 19 19 19
29 29 29 30 30 30 31 31 31 30 30 30 30 31 30 30 30 29 29 28 28 27 27 26 25 24 24 23 23 23 22 22 21 21 21 21 21 20 20 20 20 19 19 19
28 28 28 29 29 29 30 30 30 31 30 30 30 31 30 29 29 28 27 27 26 26 25 25 24 23 23 23 23 22 22 21 21 21 21 21 21 20 20 20 20 19 19 19
26 28 28 28 29 29 29 29 29 30 30 30 30 31 29 28 28 27 26 26 25 25 24 24 23 23 22 22 22 22 21 21 21 21 20 20 20 20 20 20 20 19 19 19
26 27 27 28 29 29 29 29 29 29 30 30 30 30 29 27 27 26 25 25 24 24 23 23 22 22 21 21 21 21 21 21 20 20 20 20 20 20 20 20 19 19 19 19
25 26 26 27 28 28 28 28 28 28 29 29 29 29 27 26 25 24 24 24 23 23 23 22 22 21 21 21 21 21 20 20 20 20 20 19 19 19 19 19 19 19 19 19
25 25 25 27 27 27 27 28 28 28 28 28 28 27 26 25 24 24 23 23 23 22 22 22 21 21 21 20 20 20 20 20 19 19 19 19 19 19 19 19 19 18 19 19
24 24 25 26 25 25 27 27 27 27 27 27 26 25 25 24 23 22 22 22 22 21 21 21 21 20 20 20 20 20 20 19 19 19 19 19 19 19 19 18 18 18 18 18
24 23 25 25 25 26 26 25 26 26 25 25 25 24 23 22 23 23 21 21 20 20 20 19 20 20 20 20 19 19 19 19 19 19 19 19 19 18 18 18 18 18 18 18
23 23 24 24 24 25 25 25 24 25 24 24 23 23 22 22 24 24 20 19 19 18 18 19 19 19 19 19 19 19 19 19 19 19 18 19 19 18 18 18 18 17 17 17
23 22 23 23 24 25 24 23 23 24 23 22 22 22 22 22 22 20 19 18 18 17 18 18 18 18 18 18 18 18 18 18 18 18 18 18 18 18 18 17 17 17 17 16
23 23 22 23 23 23 22 22 23 22 20 20 20 20 20 19 18 18 18 17 17 17 17 17 17 17 17 17 17 18 18 18 17 18 18 18 18 17 17 17 17 16 16 16
22 22 23 22 22 20 19 20 19 19 19 19 19 19 18 18 18 17 17 17 17 17 17 17 17 17 17 17 17 17 17 17 17 17 17 17 17 17 17 17 16 16 16 16
20 19 20 20 20 19 19 19 18 18 18 18 18 18 18 18 17 17 17 17 16 16 16 16 16 16 16 16 16 16 16 17 16 16 16 16 16 16 16 16 16 16 15 15
19 19 20 19 19 19 18 18 17 17 17 17 17 17 17 17 17 16 16 16 16 16 16 15 15 15 15 15 15 15 16 16 16 16 16 16 16 16 15 15 15 15 15 15
19 19 19 19 18 18 18 17 17 16 16 16 16 16 16 16 16 16 16 15 15 15 15 15 15 15 15 15 15 15 15 15 15 15 15 15 15 15 15 15 15 15 15 14
Wind_Speed
7 11 12 11 10 8 6 7 6 4 4 8 10 9 7 10 12 12 12 13 13 12 11 11 11 11 11 11 11 10 10 9 8 6 6 6 5 5 4 4 5 5 5 5
10 14 11 7 7 8 9 9 7 5 4 6 7 8 7 9 12 12 13 13 13 12 11 12 12 12 13 12 12 11 11 11 10 7 6 5 4 4 4 4 4 6 6 6
16 8 6 8 10 11 11 10 8 6 5 7 7 8 8 9 10 11 12 12 13 13 13 13 13 13 13 13 13 12 12 11 11 9 7 5 4 5 4 5 5 5 6 6
12 7 7 11 12 12 11 8 8 7 9 6 7 6 6 8 10 12 13 13 13 13 13 13 14 14 14 13 13 12 12 11 10 10 9 8 7 6 5 4 4 4 5 5
9 9 10 12 11 11 8 4 7 9 9 9 8 8 4 6 7 9 11 12 12 13 13 14 14 14 13 13 12 12 12 11 11 11 10 9 8 6 5 5 5 4 4 5
8 6 8 8 7 7 6 6 6 9 10 12 9 9 7 4 5 6 8 10 11 11 12 13 13 12 12 12 12 12 12 11 11 11 11 10 9 7 6 5 5 5 4 4
12 11 8 7 8 10 11 11 10 11 11 11 7 9 7 3 3 4 5 8 10 10 12 13 13 13 13 13 13 12 12 12 11 11 11 10 10 8 8 6 6 5 4 4
13 13 12 10 12 11 14 16 14 12 12 10 8 10 6 2 2 3 4 6 8 10 11 12 13 13 13 13 13 12 12 11 11 11 10 9 9 8 6 7 5 5 5 4
9 10 7 7 8 10 13 15 15 14 14 12 9 7 6 3 3 3 4 6 7 9 10 11 12 12 12 13 13 13 12 11 11 11 10 9 9 8 7 6 6 5 5 5
6 8 8 7 7 5 9 11 10 13 13 13 12 11 7 5 3 4 5 6 7 7 8 10 10 11 11 12 11 11 11 11 11 10 10 8 9 9 8 7 7 6 6 5
8 9 8 9 10 11 9 10 10 12 13 13 13 8 1 2 2 2 4 5 6 7 7 8 8 9 10 11 11 11 11 10 10 10 9 8 8 9 8 8 7 7 6 7
7 8 9 9 4 4 9 10 12 12 12 12 13 6 4 2 1 0 1 3 4 5 6 7 8 8 9 10 10 10 10 10 10 9 9 9 8 8 8 8 8 7 7 7
5 7 10 11 9 7 7 8 9 11 10 12 14 7 5 3 2 1 1 2 3 5 5 6 7 7 7 8 8 9 9 9 9 9 9 9 9 9 8 7 7 7 7 7
5 8 12 13 8 9 10 9 9 11 12 13 14 8 3 2 1 1 1 2 3 5 5 5 6 6 5 6 7 7 7 7 8 8 9 9 9 8 8 8 7 7 7 7
4 9 10 10 7 7 10 10 10 12 12 12 10 7 3 2 1 1 1 2 3 4 4 4 4 5 5 5 5 5 6 6 6 7 8 8 8 7 7 7 7 7 7 8
3 6 8 10 9 9 10 10 10 11 10 10 9 6 1 0 1 1 1 2 2 2 3 3 3 3 3 4 5 6 5 5 6 6 7 6 7 7 7 7 7 7 7 7
5 6 8 11 10 10 13 11 11 10 8 9 9 3 1 1 1 1 1 1 1 1 2 2 2 2 2 3 4 5 5 5 5 5 5 6 6 6 7 7 7 7 7 6
5 7 7 9 8 15 6 2 5 7 5 3 1 1 1 1 0 1 2 2 3 3 2 1 1 1 1 2 3 4 4 5 5 5 5 5 6 6 6 6 6 6 6 5
6 7 7 9 12 11 5 4 5 6 5 2 2 1 1 0 2 4 3 4 4 4 3 2 2 1 1 1 1 3 4 4 5 5 5 5 5 5 5 5 5 5 5 5
5 7 8 9 12 11 4 3 1 4 7 2 1 2 2 2 4 1 4 5 4 4 4 3 2 2 2 2 1 2 2 3 3 4 4 4 4 4 4 4 4 4 4 5
9 8 12 12 12 7 2 1 4 8 1 2 1 2 3 3 4 2 3 4 4 4 3 3 2 2 2 1 1 1 1 2 2 2 2 3 3 4 4 4 4 3 4 4
7 8 10 11 13 7 4 1 2 3 4 3 2 3 3 3 2 2 2 3 4 4 4 4 3 2 2 1 0 1 1 1 1 2 2 2 2 2 3 3 4 5 5 5
4 3 3 4 3 3 2 2 3 3 4 4 4 3 2 2 2 3 3 3 3 4 4 4 3 2 2 2 1 1 1 2 2 2 3 3 3 2 3 3 4 5 5 5
3 2 3 4 2 2 2 3 3 4 4 4 4 3 3 3 3 4 4 4 4 4 4 4 3 2 2 2 2 2 2 3 3 3 3 3 3 3 2 3 3 4 4 4
3 3 5 6 4 4 3 4 4 4 3 3 3 3 4 4 4 4 4 4 4 4 5 4 4 3 3 3 3 3 2 2 2 2 2 3 3 3 2 2 1 1 0 2
4 5 6 5 3 5 5 4 4 4 3 3 4 4 4 4 5 5 4 4 4 4 5 4 4 4 4 3 3 3 3 2 3 3 3 3 2 2 2 2 2 5 3 4
Wind_Direction
212 226 224 223 232 256 253 247 239 219 199 222 237 243 211 194 204 204 202 203 205 209 202 196 196 194 191 190 190 192 196 188 189 191 196 196 197 201 203 208 205 206 206 202
217 227 230 234 226 232 235 238 232 206 188 226 244 246 226 202 211 211 208 207 209 207 198 194 195 193 194 192 192 192 196 194 197 194 199 202 206 211 210 214 205 214 213 213
227 219 198 213 213 223 230 238 235 222 194 216 247 237 211 203 211 214 216 214 212 208 202 194 195 196 195 194 195 196 198 196 200 195 196 195 198 217 208 209 206 212 215 218
231 208 201 216 218 226 227 231 239 224 224 225 236 259 200 199 206 211 213 212 211 207 204 198 195 197 197 195 193 195 195 197 197 198 204 204 210 215 213 210 202 203 212 221
210 205 211 220 220 225 235 222 220 227 236 249 232 261 232 190 215 213 210 209 208 203 201 197 196 195 195 192 190 190 191 194 195 200 203 209 219 219 213 205 201 214 210 216
226 206 225 228 217 210 178 183 197 226 240 240 240 254 255 222 233 225 209 203 202 198 196 194 192 189 190 187 186 186 187 192 194 198 204 210 216 217 216 213 210 214 209 211
217 213 207 209 198 189 204 215 219 225 229 239 219 245 257 266 256 241 220 201 196 192 191 189 187 186 187 186 186 185 186 191 194 198 204 208 213 212 214 220 217 224 222 216
215 213 204 208 222 214 217 229 234 242 241 233 205 239 243 237 265 250 218 191 186 185 186 186 185 185 185 186 185 185 185 189 193 197 202 207 210 215 214 211 227 222 233 234
224 217 185 202 222 236 222 232 245 249 256 262 241 232 226 220 228 204 183 173 177 181 180 181 181 183 183 185 186 186 185 190 194 196 199 204 207 215 215 207 216 224 224 225
240 228 199 188 196 214 250 234 230 240 244 248 244 237 237 220 221 188 178 175 170 171 175 175 177 179 181 182 182 185 187 191 193 195 198 198 202 206 209 214 214 222 222 223
237 231 209 197 216 211 198 214 229 239 246 249 250 235 197 197 229 202 184 176 168 170 169 168 170 174 177 178 178 182 187 192 193 194 195 200 200 201 204 209 213 215 217 213
223 235 228 213 196 258 231 227 221 230 233 244 260 245 101 119 135 164 156 156 164 164 161 158 158 165 173 177 179 183 187 194 194 190 190 195 198 200 204 205 208 209 211 213
208 226 225 212 198 199 215 217 228 238 239 242 248 235 126 118 105 84 84 129 146 154 155 154 152 160 170 174 179 184 190 195 191 187 190 190 194 199 204 204 202 203 205 209
231 233 239 243 234 204 210 212 219 232 237 240 245 243 171 166 202 41 69 115 135 144 150 152 148 152 161 170 175 183 189 190 189 190 192 192 195 197 201 201 199 200 201 204
234 233 235 251 249 233 229 225 223 235 250 253 247 241 248 244 257 19 65 103 119 127 132 139 148 148 161 167 173 180 183 183 188 191 193 194 197 198 200 199 199 198 201 205
235 242 232 235 231 228 235 235 232 237 245 249 247 239 298 34 112 87 87 110 114 113 114 124 143 155 170 174 176 176 178 180 184 192 193 192 195 197 198 199 199 199 202 208
222 224 235 234 223 228 233 229 229 230 236 247 248 241 149 144 103 81 69 68 87 76 84 100 123 159 179 184 183 180 177 177 180 190 192 190 195 199 201 201 197 198 201 203
234 233 236 238 223 234 224 175 222 225 228 245 250 192 204 219 244 101 78 57 48 37 30 34 31 103 155 172 176 182 176 172 178 186 192 193 197 201 200 201 200 200 199 200
228 225 235 237 231 232 200 192 213 218 214 206 223 187 153 68 183 146 71 40 31 21 8 5 5 27 64 93 160 181 181 175 177 182 191 195 193 198 197 199 204 201 198 200
195 215 231 237 243 239 194 134 226 235 216 145 192 194 195 219 237 187 26 6 5 7 2 2 21 40 46 45 72 181 176 173 188 194 193 187 181 188 194 193 202 204 203 203
201 211 226 235 243 242 58 100 209 226 212 51 317 251 246 266 314 337 337 349 357 360 359 6 20 39 37 33 40 193 178 181 192 195 182 177 184 196 199 188 188 202 219 214
227 220 223 235 242 234 63 165 236 347 4 336 305 287 286 310 343 343 344 349 348 348 355 1 4 6 358 348 289 213 209 203 191 182 176 177 186 205 197 188 197 201 211 214
236 272 261 254 261 52 31 341 339 325 317 314 303 296 286 279 291 308 320 327 333 336 336 336 336 333 329 316 290 271 247 222 205 190 193 196 196 199 210 199 208 210 208 218
201 263 256 257 241 272 294 306 308 310 300 298 292 284 279 275 281 293 304 310 318 321 318 319 317 319 324 318 299 281 269 233 216 203 201 199 197 201 201 211 215 219 220 223
263 244 248 252 258 268 268 292 303 308 297 290 289 288 283 279 279 285 289 294 304 304 300 300 304 304 303 305 305 305 298 257 226 219 219 226 223 205 204 200 246 234 264 292
253 260 263 269 284 284 287 296 296 290 278 272 277 285 287 285 282 280 282 285 288 287 287 285 283 281 285 293 301 307 301 272 244 237 236 239 233 207 202 178 131 58 64 52
Height
1495 1493 1491 1488 1487 1488 1490 1493 1495 1494 1494 1497 1498 1497 1497 1503 1507 1510 1513 1516 1519 1522 1525 1528 1530 1532 1533 1535 1537 1538 1540 1542 1543 1545 1546 1547 1549 1550 1550 1551 1551 1552 1553 1553
1493 1491 1486 1486 1488 1491 1492 1495 1494 1493 1493 1496 1495 1495 1493 1499 1502 1505 1509 1512 1515 1519 1522 1525 1527 1529 1531 1532 1534 1536 1538 1540 1541 1543 1544 1545 1547 1548 1549 1550 1550 1550 1551 1552
1489 1485 1487 1490 1491 1492 1491 1492 1492 1494 1494 1494 1495 1495 1492 1494 1499 1503 1505 1508 1511 1514 1517 1521 1523 1526 1528 1530 1532 1534 1536 1538 1539 1541 1543 1544 1545 1546 1548 1548 1548 1549 1549 1550
1485 1485 1489 1489 1489 1489 1493 1487 1489 1492 1497 1495 1496 1502 1491 1489 1494 1497 1500 1503 1506 1510 1513 1517 1520 1522 1525 1527 1529 1531 1533 1535 1537 1539 1541 1542 1543 1545 1545 1546 1547 1547 1548 1548
1485 1486 1488 1488 1486 1486 1487 1486 1488 1490 1493 1496 1494 1500 1490 1486 1490 1490 1494 1498 1501 1506 1509 1513 1516 1519 1522 1525 1527 1529 1530 1532 1534 1536 1538 1539 1541 1543 1544 1544 1545 1545 1546 1546
1481 1484 1484 1483 1483 1485 1487 1490 1491 1490 1490 1506 1497 1501 1496 1483 1485 1485 1488 1493 1498 1502 1505 1509 1513 1516 1519 1522 1524 1526 1528 1529 1531 1533 1535 1537 1539 1540 1541 1542 1543 1544 1545 1545
1486 1483 1482 1483 1485 1487 1487 1493 1504 1508 1508 1503 1491 1497 1492 1480 1481 1484 1486 1490 1494 1498 1502 1505 1509 1512 1515 1518 1521 1523 1525 1527 1529 1531 1532 1534 1536 1537 1538 1540 1541 1542 1543 1543
1488 1487 1479 1480 1481 1482 1483 1484 1501 1512 1507 1495 1494 1495 1483 1479 1483 1484 1486 1488 1491 1495 1499 1502 1506 1509 1512 1515 1517 1520 1522 1524 1526 1528 1530 1532 1533 1535 1537 1537 1539 1540 1541 1541
1481 1482 1475 1477 1478 1478 1482 1481 1474 1485 1491 1496 1488 1484 1479 1479 1481 1483 1484 1487 1490 1493 1496 1500 1503 1506 1509 1512 1514 1517 1519 1521 1523 1526 1527 1529 1531 1532 1534 1535 1536 1537 1538 1539
1476 1484 1476 1477 1478 1480 1477 1474 1481 1487 1503 1506 1495 1489 1484 1480 1480 1481 1483 1486 1489 1492 1495 1498 1501 1504 1507 1509 1512 1515 1517 1519 1521 1523 1525 1527 1528 1529 1531 1532 1533 1534 1535 1536
1476 1483 1479 1477 1479 1477 1482 1482 1480 1481 1483 1498 1501 1489 1473 1478 1480 1481 1482 1485 1488 1491 1493 1496 1499 1502 1504 1507 1509 1511 1514 1516 1518 1520 1522 1524 1525 1527 1528 1529 1530 1531 1532 1533
1478 1478 1480 1476 1473 1474 1473 1474 1478 1488 1491 1487 1489 1486 1475 1477 1480 1482 1483 1486 1488 1490 1492 1495 1498 1500 1502 1505 1507 1509 1511 1513 1515 1517 1519 1520 1522 1524 1526 1527 1528 1529 1530 1530
1480 1482 1489 1485 1482 1478 1476 1475 1474 1475 1480 1484 1488 1484 1475 1479 1481 1484 1485 1487 1488 1490 1492 1494 1496 1498 1500 1502 1504 1506 1509 1511 1513 1514 1516 1517 1519 1521 1523 1524 1525 1526 1527 1527
1482 1479 1483 1483 1475 1472 1477 1477 1475 1476 1478 1480 1479 1475 1476 1479 1481 1484 1486 1487 1489 1491 1492 1494 1495 1496 1499 1501 1502 1504 1507 1509 1510 1512 1513 1515 1516 1518 1520 1521 1521 1523 1523 1524
1481 1479 1477 1473 1469 1470 1472 1474 1475 1476 1474 1476 1472 1473 1476 1479 1483 1485 1487 1488 1489 1491 1492 1493 1494 1495 1497 1499 1500 1502 1504 1506 1507 1509 1511 1512 1514 1515 1517 1518 1518 1519 1520 1520
1481 1480 1478 1478 1472 1472 1475 1473 1474 1475 1473 1472 1472 1476 1478 1482 1485 1486 1487 1488 1489 1491 1491 1493 1494 1495 1496 1497 1498 1500 1501 1503 1504 1506 1508 1509 1511 1512 1513 1514 1514 1515 1516 1517
1479 1482 1483 1479 1472 1475 1479 1472 1472 1473 1472 1473 1474 1477 1480 1483 1485 1487 1488 1489 1489 1490 1491 1492 1493 1494 1494 1495 1496 1498 1499 1500 1502 1504 1505 1506 1507 1509 1509 1510 1511 1511 1512 1513
1482 1482 1480 1476 1481 1490 1471 1469 1470 1472 1474 1474 1477 1480 1482 1485 1487 1489 1490 1490 1490 1490 1491 1492 1492 1493 1493 1494 1495 1496 1497 1498 1499 1500 1502 1503 1505 1505 1506 1507 1507 1508 1509 1510
1480 1482 1479 1478 1479 1475 1473 1472 1473 1474 1477 1478 1479 1481 1484 1486 1486 1487 1489 1490 1491 1491 1491 1491 1491 1491 1491 1492 1493 1494 1495 1496 1496 1497 1499 1500 1501 1502 1503 1503 1504 1505 1506 1506
1480 1480 1480 1480 1482 1481 1472 1473 1476 1477 1480 1480 1481 1483 1485 1485 1482 1484 1489 1490 1490 1490 1490 1489 1489 1489 1490 1489 1491 1492 1492 1493 1494 1495 1496 1496 1497 1498 1499 1500 1501 1502 1502 1503
1478 1480 1479 1479 1479 1471 1474 1476 1477 1483 1481 1483 1483 1484 1485 1486 1486 1488 1489 1489 1490 1489 1489 1488 1488 1488 1488 1488 1489 1490 1490 1491 1492 1492 1492 1493 1494 1495 1496 1496 1497 1498 1500 1500
1475 1475 1478 1477 1480 1478 1478 1478 1479 1481 1484 1484 1484 1485 1486 1487 1488 1488 1488 1489 1489 1489 1488 1487 1487 1487 1487 1486 1487 1487 1487 1488 1489 1489 1489 1490 1490 1492 1493 1493 1494 1494 1496 1497
1476 1476 1472 1475 1478 1481 1482 1482 1484 1485 1485 1485 1485 1486 1486 1487 1487 1488 1488 1488 1488 1487 1487 1487 1486 1485 1485 1484 1484 1484 1485 1485 1486 1486 1486 1487 1487 1487 1488 1489 1491 1491 1491 1493
1479 1482 1479 1480 1479 1481 1483 1483 1484 1485 1485 1485 1485 1486 1486 1486 1486 1486 1486 1486 1485 1485 1485 1485 1484 1483 1482 1482 1482 1482 1482 1482 1483 1483 1483 1483 1484 1484 1485 1485 1486 1488 1488 1489
1480 1480 1479 1480 1480 1482 1482 1484 1484 1484 1484 1484 1484 1485 1485 1485 1485 1485 1484 1484 1483 1483 1483 1482 1481 1481 1480 1480 1480 1480 1480 1479 1480 1480 1480 1480 1481 1482 1482 1482 1483 1484 1485 1486
1481 1481 1480 1478 1482 1482 1482 1483 1483 1483 1482 1483 1483 1483 1483 1483 1482 1482 1481 1481 1481 1480 1480 1479 1479 1479 1478 1478 1477 1476 1476 1476 1477 1477 1477 1478 1479 1479 1479 1479 1480 1480 1481 1482